GW3733 Weather Reports


Display with metric or nautical units.
time (UTC)temp
F
wind
direction
speed
MPH
gust
MPH
rain 1hr
in
rain 24hr
in
rain mn
in
humidity
%
barometer
mb
20260507051741 52 12 0.0 1.0 0.00 0.00 0.00 84 1008.0
20260507051237 52 2 0.0 0.0 0.00 0.00 0.00 85 1007.8
20260507050733 52 50 0.0 1.0 0.00 0.00 0.00 86 1007.8
20260507050231 52 68 2.0 2.0 0.00 0.00 0.00 85 1007.5
20260507045727 52 351 0.0 0.0 0.00 0.00 0.00 87 1007.8
20260507045224 52 2 0.0 0.0 0.00 0.00 0.00 87 1007.8
20260507044721 52 352 0.0 0.0 0.00 0.00 0.00 86 1007.5
20260507044217 52 355 0.0 0.0 0.00 0.00 0.00 87 1007.9
20260507043714 52 346 1.0 1.0 0.00 0.00 0.00 86 1007.8
20260507043211 52 333 1.0 1.0 0.00 0.00 0.00 86 1007.6
20260507042707 52 320 1.0 2.0 0.00 0.00 0.00 86 1007.9
20260507042202 52 350 0.0 1.0 0.00 0.00 0.00 85 1007.8
20260507041659 52 341 1.0 1.0 0.00 0.00 0.00 85 1008.0
20260507041156 52 6 1.0 1.0 0.00 0.00 0.00 86 1007.6
20260507040653 52 291 2.0 2.0 0.00 0.00 0.00 86 1008.0
20260507040149 52 12 1.0 2.0 0.00 0.00 0.00 88 1007.3
20260507035645 52 7 1.0 2.0 0.00 0.07 0.07 87 1007.3
20260507035141 52 4 0.0 1.0 0.00 0.07 0.07 86 1007.6
20260507034638 53 333 1.0 1.0 0.00 0.07 0.07 87 1008.0
20260507034136 53 355 0.0 0.0 0.00 0.07 0.07 87 1008.2
20260507033634 53 350 1.0 1.0 0.00 0.07 0.07 88 1008.4
20260507033131 53 349 0.0 1.0 0.00 0.07 0.07 88 1008.0
20260507032629 53 3 0.0 0.0 0.00 0.07 0.07 88 1006.9
20260507032124 53 14 1.0 1.0 0.00 0.07 0.07 89 1007.5
20260507031621 53 359 0.0 1.0 0.00 0.07 0.07 89 1007.5
20260507031113 54 48 0.0 0.0 0.00 0.07 0.07 89 1007.5
20260507030609 54 355 0.0 0.0 0.00 0.07 0.07 89 1008.0
20260507030107 54 22 2.0 2.0 0.00 0.07 0.07 89 1008.1
20260507025604 54 343 1.0 1.0 0.00 0.07 0.07 89 1007.9
20260507025101 54 319 4.0 6.0 0.00 0.07 0.07 89 1007.8
20260507024559 54 358 0.0 0.0 0.00 0.07 0.07 89 1007.6
20260507024056 54 5 1.0 2.0 0.00 0.07 0.07 89 1007.8
20260507023551 54 350 2.0 2.0 0.00 0.07 0.07 89 1007.9
20260507023049 55 354 1.0 1.0 0.00 0.07 0.07 88 1007.6
20260507022545 55 7 1.0 1.0 0.00 0.07 0.07 88 1007.3
20260507022040 55 9 0.0 0.0 0.00 0.07 0.07 87 1007.1
20260507021537 55 31 0.0 1.0 0.00 0.07 0.07 87 1007.3
20260507021033 55 6 0.0 1.0 0.00 0.07 0.07 87 1007.0
20260507020531 55 4 0.0 1.0 0.00 0.07 0.07 87 1007.2
20260507020027 55 5 0.0 1.0 0.00 0.07 0.07 87 1007.2
20260507015526 55 306 3.0 3.0 0.00 0.07 0.07 87 1007.2
20260507015023 55 353 0.0 0.0 0.00 0.07 0.07 87 1006.9
20260507014519 55 344 1.0 1.0 0.00 0.07 0.07 87 1007.0
20260507014015 55 8 1.0 2.0 0.00 0.07 0.07 86 1006.9
20260507013512 55 13 0.0 1.0 0.00 0.07 0.07 87 1007.2
20260507013009 55 5 1.0 1.0 0.00 0.07 0.07 88 1006.8
20260507012506 56 125 1.0 2.0 0.00 0.07 0.07 86 1007.1
20260507012002 55 4 1.0 1.0 0.00 0.07 0.07 87 1007.1
20260507011500 56 358 0.0 0.0 0.00 0.07 0.07 88 1007.1
20260507010955 56 3 1.0 1.0 0.00 0.07 0.07 86 1007.2
20260507010450 56 2 0.0 0.0 0.00 0.07 0.07 87 1006.7
20260507005947 56 338 2.0 2.0 0.00 0.07 0.07 87 1006.7
20260507005444 56 6 0.0 1.0 0.00 0.07 0.07 89 1006.4
20260507004941 56 352 0.0 0.0 0.00 0.07 0.07 87 1006.6
20260507004437 57 7 0.0 1.0 0.00 0.07 0.07 87 1006.5
20260507003935 57 332 0.0 0.0 0.00 0.07 0.07 86 1006.5
20260507003430 57 351 1.0 2.0 0.00 0.07 0.07 85 1006.7
20260507002925 57 340 3.0 4.0 0.00 0.07 0.07 85 1007.1
20260507002422 57 283 1.0 2.0 0.00 0.07 0.07 86 1007.0
20260507001919 57 4 0.0 0.0 0.00 0.07 0.07 86 1007.1
20260507001416 57 339 1.0 1.0 0.00 0.07 0.07 85 1006.9
20260507000914 58 342 2.0 2.0 0.00 0.07 0.07 85 1006.7
20260507000408 58 27 1.0 2.0 0.00 0.07 0.07 85 1006.4
20260506235904 58 0 3.0 4.0 0.00 0.07 0.07 85 1006.7
20260506235402 58 331 2.0 2.0 0.00 0.07 0.07 86 1006.7
20260506234857 58 346 1.0 1.0 0.00 0.07 0.07 86 1006.8
20260506234355 58 5 1.0 2.0 0.00 0.07 0.07 87 1006.5
20260506233853 58 337 1.0 2.0 0.00 0.07 0.07 87 1006.5
20260506233348 58 12 1.0 2.0 0.00 0.07 0.07 88 1006.6
20260506232846 58 359 2.0 3.0 0.00 0.07 0.07 87 1006.2
20260506232342 58 301 5.0 7.0 0.00 0.07 0.07 87 1006.3
20260506231838 58 9 1.0 2.0 0.00 0.07 0.07 89 1006.0
20260506231336 58 326 2.0 3.0 0.00 0.07 0.07 90 1005.9
20260506230833 59 359 1.0 2.0 0.00 0.07 0.07 90 1005.5
20260506230330 59 331 1.0 1.0 0.00 0.07 0.07 91 1005.8
20260506225826 59 335 0.0 1.0 0.00 0.07 0.07 92 1005.6
20260506225323 59 314 4.0 4.0 0.00 0.07 0.07 90 1005.7
20260506224820 60 333 3.0 3.0 0.00 0.07 0.07 91 1005.9
20260506224317 60 287 6.0 8.0 0.00 0.07 0.07 90 1005.8
20260506223814 60 320 2.0 2.0 0.00 0.07 0.07 90 1005.8
20260506223309 60 308 3.0 4.0 0.00 0.07 0.07 90 1005.4
20260506222806 60 303 4.0 6.0 0.00 0.07 0.07 91 1005.5
20260506222305 60 315 2.0 2.0 0.07 0.07 0.07 93 1005.6
20260506221755 60 308 2.0 2.0 0.07 0.07 0.07 92 1005.4
20260506221252 60 307 2.0 2.0 0.00 0.06 0.06 92 1005.4
20260506220749 61 331 1.0 2.0 0.00 0.06 0.06 94 1005.6
20260506220243 61 6 2.0 3.0 0.05 0.06 0.06 93 1005.4
20260506215741 62 339 1.0 1.0 0.05 0.06 0.06 91 1005.6
20260506215236 62 348 1.0 2.0 0.00 0.05 0.05 89 1005.5
20260506214733 62 318 3.0 3.0 0.00 0.05 0.05 89 1005.4
20260506214230 62 299 6.0 8.0 0.00 0.05 0.05 88 1004.9
20260506213728 62 332 2.0 2.0 0.00 0.05 0.05 89 1004.9
20260506213225 62 306 3.0 4.0 0.00 0.05 0.05 89 1004.8
20260506212722 63 358 2.0 3.0 0.00 0.05 0.05 90 1004.4
20260506212218 63 313 4.0 4.0 0.00 0.05 0.05 89 1004.7
20260506211713 63 330 1.0 1.0 0.00 0.05 0.05 88 1004.7
20260506211210 63 279 1.0 2.0 0.00 0.05 0.05 89 1004.7
20260506210707 64 333 3.0 3.0 0.00 0.05 0.05 89 1004.4
20260506210204 63 358 2.0 2.0 0.00 0.05 0.05 90 1004.4
20260506205702 64 357 0.0 1.0 0.00 0.05 0.05 90 1004.5
20260506205201 65 25 2.0 3.0 0.00 0.05 0.05 87 1004.5
20260506204659 66 338 2.0 2.0 0.00 0.05 0.05 84 1004.4
20260506204156 66 349 1.0 1.0 0.00 0.05 0.05 80 1004.0
20260506203654 67 2 1.0 2.0 0.00 0.05 0.05 81 1003.7
20260506203151 67 347 0.0 0.0 0.00 0.05 0.05 80 1004.0
20260506202649 68 342 0.0 1.0 0.00 0.05 0.05 82 1004.0
20260506202144 68 359 0.0 0.0 0.00 0.05 0.05 80 1003.6
20260506201642 68 343 0.0 0.0 0.00 0.05 0.05 81 1003.6
20260506201138 68 359 0.0 0.0 0.00 0.05 0.05 84 1003.6
20260506200635 67 359 0.0 0.0 0.00 0.05 0.05 84 1003.7
20260506200132 67 359 0.0 0.0 0.00 0.05 0.05 82 1003.6
20260506195628 67 10 0.0 0.0 0.00 0.05 0.05 82 1003.7
20260506195125 67 353 0.0 0.0 0.00 0.05 0.05 81 1003.6
20260506194622 67 3 0.0 0.0 0.00 0.05 0.05 82 1003.6
20260506194118 68 10 0.0 0.0 0.00 0.05 0.05 81 1003.4
20260506193617 68 12 0.0 0.0 0.00 0.05 0.05 80 1003.6
20260506193114 68 359 0.0 0.0 0.00 0.05 0.05 81 1003.5
20260506192610 68 1 0.0 0.0 0.00 0.05 0.05 81 1003.4
20260506192106 68 13 0.0 0.0 0.00 0.05 0.05 80 1003.7
20260506191603 68 0 0.0 0.0 0.00 0.05 0.05 82 1003.5
20260506191059 68 1 0.0 0.0 0.00 0.05 0.05 83 1003.7
20260506190556 68 0 0.0 0.0 0.00 0.05 0.05 81 1003.6
20260506190053 67 0 0.0 0.0 0.00 0.05 0.05 80 1003.8
20260506185550 68 299 1.0 2.0 0.00 0.05 0.05 79 1003.6
20260506185047 67 355 0.0 0.0 0.00 0.05 0.05 82 1003.8
20260506184544 68 324 1.0 2.0 0.00 0.05 0.05 81 1003.8
20260506184042 68 354 0.0 0.0 0.00 0.05 0.05 81 1003.6
20260506183537 68 4 0.0 0.0 0.00 0.05 0.05 81 1003.6
20260506183034 68 5 0.0 0.0 0.00 0.05 0.05 82 1003.5
20260506182531 67 343 1.0 2.0 0.00 0.05 0.05 83 1003.4
20260506182028 66 10 0.0 0.0 0.00 0.05 0.05 85 1003.7
20260506181526 66 1 0.0 0.0 0.00 0.05 0.05 86 1003.6
20260506181023 66 351 0.0 0.0 0.00 0.05 0.05 87 1003.7
20260506180520 66 1 0.0 0.0 0.00 0.05 0.05 89 1003.7
20260506180016 65 5 1.0 1.0 0.00 0.05 0.05 89 1004.0
20260506175513 65 347 0.0 1.0 0.00 0.05 0.05 88 1003.8
20260506175009 66 359 0.0 0.0 0.00 0.05 0.05 88 1003.8
20260506174508 66 358 0.0 0.0 0.00 0.05 0.05 88 1003.7
20260506174003 65 1 0.0 0.0 0.00 0.05 0.05 89 1003.6
20260506173501 65 0 0.0 0.0 0.00 0.05 0.05 89 1003.7
20260506172958 65 5 0.0 0.0 0.00 0.05 0.05 88 1003.6
20260506172455 66 5 0.0 0.0 0.00 0.05 0.05 87 1003.7
20260506171951 65 3 0.0 0.0 0.00 0.05 0.05 85 1003.6
20260506171449 66 3 2.0 2.0 0.00 0.05 0.05 84 1003.6
20260506170947 66 0 0.0 0.0 0.00 0.05 0.05 85 1003.6
20260506170443 66 355 0.0 0.0 0.00 0.05 0.05 85 1003.4
20260506165936 66 356 0.0 0.0 0.00 0.05 0.05 84 1003.6
20260506165434 66 334 0.0 0.0 0.00 0.05 0.05 84 1003.6
20260506164929 66 350 0.0 0.0 0.00 0.05 0.05 84 1003.3
20260506164427 66 334 0.0 1.0 0.00 0.05 0.05 83 1003.5
20260506163919 66 355 1.0 1.0 0.00 0.05 0.05 83 1003.4
20260506163413 66 345 0.0 0.0 0.00 0.05 0.05 83 1003.3
20260506162908 66 338 0.0 0.0 0.00 0.05 0.05 83 1003.3
20260506162407 66 315 0.0 1.0 0.00 0.05 0.05 83 1003.4
20260506161904 66 1 0.0 0.0 0.00 0.05 0.05 82 1003.4
20260506161401 66 272 2.0 2.0 0.00 0.05 0.05 82 1003.3
20260506160853 66 299 2.0 3.0 0.00 0.05 0.05 82 1003.5
20260506160350 66 356 0.0 0.0 0.00 0.05 0.05 82 1003.4
20260506155848 66 334 1.0 1.0 0.00 0.05 0.05 82 1003.3
20260506155344 66 11 0.0 0.0 0.00 0.05 0.05 80 1003.2
20260506153456 66 265 1.0 2.0 0.00 0.05 0.05 80 1003.3
20260506152953 66 2 0.0 0.0 0.00 0.05 0.05 81 1003.3
20260506152450 66 8 1.0 1.0 0.00 0.05 0.05 80 1003.4
20260506151948 66 334 2.0 4.0 0.00 0.05 0.05 82 1003.4
20260506151445 66 298 2.0 2.0 0.00 0.05 0.05 82 1003.5
20260506150943 66 320 1.0 1.0 0.00 0.05 0.05 83 1003.3
20260506150438 66 122 6.0 8.0 0.00 0.05 0.05 81 1003.4
20260506145936 66 351 1.0 1.0 0.00 0.05 0.05 83 1003.3
20260506145432 65 1 0.0 0.0 0.00 0.05 0.05 89 1003.2
20260506144930 64 342 0.0 0.0 0.00 0.05 0.05 88 1003.3
20260506144426 63 31 2.0 4.0 0.00 0.05 0.05 89 1003.2
20260506143925 63 224 1.0 1.0 0.00 0.05 0.05 90 1003.5
20260506143421 62 354 0.0 0.0 0.00 0.05 0.05 93 1003.5
20260506142920 61 54 1.0 2.0 0.00 0.05 0.05 90 1003.5
20260506142417 62 346 0.0 1.0 0.00 0.05 0.05 93 1003.4
20260506141915 61 9 0.0 0.0 0.00 0.05 0.05 95 1003.4
20260506141413 60 324 0.0 0.0 0.00 0.05 0.05 97 1003.4
20260506140911 60 346 0.0 0.0 0.00 0.05 0.05 98 1003.6
20260506140408 59 353 0.0 0.0 0.00 0.05 0.05 99 1003.5
20260506135905 59 336 0.0 0.0 0.00 0.05 0.05 99 1003.6
20260506135402 59 330 0.0 1.0 0.00 0.05 0.05 99 1003.7
20260506134858 58 6 0.0 1.0 0.00 0.05 0.05 99 1003.7
20260506134354 58 353 0.0 0.0 0.00 0.05 0.05 99 1003.8
20260506133851 58 352 0.0 0.0 0.00 0.05 0.05 99 1004.0
20260506133348 58 12 0.0 0.0 0.00 0.05 0.05 99 1004.2
20260506132844 58 15 0.0 0.0 0.00 0.05 0.05 99 1004.0
20260506132342 58 89 1.0 2.0 0.00 0.05 0.05 99 1003.9
20260506131840 58 8 0.0 0.0 0.00 0.05 0.05 99 1004.1
20260506131336 58 0 0.0 0.0 0.00 0.05 0.05 99 1004.3
20260506130833 57 6 0.0 0.0 0.00 0.05 0.05 99 1003.9
20260506130329 58 357 0.0 0.0 0.00 0.05 0.05 99 1003.8
20260506125827 58 6 0.0 0.0 0.00 0.05 0.05 99 1003.6
20260506125325 57 324 1.0 1.0 0.07 0.05 0.05 99 1003.5
20260506124824 57 8 0.0 0.0 0.07 0.05 0.05 99 1003.7
20260506124320 58 359 0.0 0.0 0.05 0.04 0.04 99 1003.8
20260506123818 58 359 0.0 0.0 0.05 0.04 0.04 99 1003.8
20260506123316 58 4 0.0 0.0 0.07 0.03 0.03 99 1003.9
20260506122813 58 14 0.0 0.0 0.07 0.03 0.03 98 1003.9
20260506122310 58 13 0.0 0.0 0.00 0.02 0.02 98 1004.0
20260506121808 58 13 0.0 0.0 0.00 0.02 0.02 98 1003.9
20260506121304 58 13 0.0 0.0 0.05 0.02 0.02 98 1004.2
20260506120802 58 13 0.0 0.0 0.05 0.02 0.02 97 1004.0
20260506120300 58 12 0.0 0.0 0.00 0.01 0.01 97 1004.2
20260506115757 58 12 0.0 0.0 0.00 0.01 0.01 97 1004.2
20260506115255 58 12 0.0 0.0 0.00 0.01 0.01 97 1004.3
20260506114753 58 12 0.0 0.0 0.00 0.01 0.01 96 1004.1
20260506114250 58 10 0.0 0.0 0.00 0.01 0.01 96 1004.2
20260506113748 58 10 0.0 0.0 0.00 0.01 0.01 96 1004.2
20260506113246 58 11 0.0 0.0 0.07 0.01 0.01 95 1004.0
20260506112742 57 11 0.0 0.0 0.07 0.01 0.01 94 1004.2
20260506112240 58 11 0.0 0.0 0.00 0.00 0.00 93 1004.0
20260506111737 58 13 0.0 0.0 0.00 0.00 0.00 93 1004.1
20260506111235 58 2 0.0 0.0 0.00 0.00 0.00 91 1004.4
20260506110731 58 0 0.0 0.0 0.00 0.00 0.00 90 1004.2
20260506110229 59 359 0.0 0.0 0.00 0.00 0.00 89 1004.2
20260506105725 59 2 0.0 0.0 0.00 0.00 0.00 86 1004.2
20260506105223 59 2 0.0 0.0 0.00 0.00 0.00 84 1003.9
20260506104721 59 9 0.0 0.0 0.00 0.00 0.00 80 1003.8
20260506104218 60 358 0.0 0.0 0.00 0.00 0.00 80 1003.7
20260506103715 60 358 0.0 0.0 0.00 0.00 0.00 79 1003.8
20260506103211 60 358 0.0 0.0 0.00 0.00 0.00 77 1004.0
20260506102710 60 358 0.0 0.0 0.00 0.00 0.00 76 1003.7
20260506102208 60 358 0.0 0.0 0.00 0.00 0.00 73 1003.9
20260506101704 61 358 0.0 0.0 0.00 0.00 0.00 73 1003.7
20260506101200 61 357 0.0 0.0 0.00 0.00 0.00 74 1003.5
20260506100659 61 10 0.0 0.0 0.00 0.00 0.00 70 1003.4
20260506100156 61 356 0.0 0.0 0.00 0.00 0.00 68 1003.3
20260506095655 62 355 0.0 0.0 0.00 0.00 0.00 70 1003.3
20260506095151 62 4 0.0 0.0 0.00 0.00 0.00 64 1003.5
20260506094649 63 8 0.0 0.0 0.00 0.00 0.00 65 1003.2
20260506094146 63 357 0.0 0.0 0.00 0.00 0.00 63 1003.3
20260506093645 63 355 0.0 0.0 0.00 0.00 0.00 64 1003.3
20260506093142 63 8 0.0 0.0 0.00 0.00 0.00 62 1003.2
20260506092639 63 356 0.0 0.0 0.00 0.00 0.00 61 1003.2
20260506092136 64 10 0.0 0.0 0.00 0.00 0.00 62 1003.2
20260506091634 63 18 0.0 0.0 0.00 0.00 0.00 61 1003.4
20260506091131 63 357 0.0 0.0 0.00 0.00 0.00 61 1003.6
20260506090630 63 0 0.0 0.0 0.00 0.00 0.00 62 1003.7
20260506090125 63 357 0.0 0.0 0.00 0.00 0.00 62 1003.7
20260506085623 63 356 0.0 0.0 0.00 0.00 0.00 62 1003.6
20260506085119 63 5 0.0 0.0 0.00 0.00 0.00 60 1003.4
20260506084615 63 358 0.0 0.0 0.00 0.00 0.00 62 1003.4
20260506084112 63 358 0.0 0.0 0.00 0.00 0.00 62 1003.6
20260506083609 63 358 0.0 0.0 0.00 0.00 0.00 63 1003.5
20260506083107 63 353 0.0 0.0 0.00 0.00 0.00 61 1003.6
20260506082603 63 17 0.0 0.0 0.00 0.00 0.00 61 1003.8
20260506082059 64 1 0.0 0.0 0.00 0.00 0.00 60 1003.7
20260506081557 64 357 0.0 1.0 0.00 0.00 0.00 60 1003.6
20260506081054 64 8 0.0 0.0 0.00 0.00 0.00 58 1003.7
20260506080552 64 37 0.0 0.0 0.00 0.00 0.00 58 1003.6
20260506073032 65 314 1.0 1.0 0.00 0.00 0.00 55 1003.7
20260506072530 65 0 0.0 1.0 0.00 0.00 0.00 56 1003.6
20260506072027 65 0 0.0 0.0 0.00 0.00 0.00 55 1003.8
20260506071525 65 351 0.0 0.0 0.00 0.00 0.00 57 1003.8
20260506071022 65 2 0.0 0.0 0.00 0.00 0.00 56 1003.6
20260506070519 65 345 0.0 0.0 0.00 0.00 0.00 56 1003.8
20260506062457 65 356 0.0 0.0 0.00 0.00 0.00 54 1004.2
20260506061953 66 261 1.0 2.0 0.00 0.00 0.00 54 1004.4
20260506061449 65 3 0.0 0.0 0.00 0.00 0.00 53 1004.4
20260506060947 66 3 1.0 2.0 0.00 0.00 0.00 51 1004.5
20260506060445 66 357 0.0 0.0 0.00 0.00 0.00 52 1004.5